Regional Weather Roundup
Issued by NWS Charleston, SC

Current Version | Previous Version | Graphics & Text | Print | Product List | Glossary On
Versions: 1 2 3 4 5 6 7 8 9 10 11 12 13 14 15 16 17 18 19 20 21 22 23 24 25 26 27 28 29 30 31 32 33 34 35 36 37 38 39 40 41 42 43 44 45 46 47 48 49 50
000
ASUS42 KCHS 121325
RWRCHS

REGIONAL WEATHER ROUNDUP
NATIONAL WEATHER SERVICE CHARLESTON SC
900 AM EDT SAT JUL 12 2014

NOTE: "FAIR" INDICATES FEW OR NO CLOUDS BELOW 12,000 FEET WITH NO
SIGNIFICANT WEATHER AND/OR OBSTRUCTIONS TO VISIBILITY.

NOT ALL STATIONS ARE QUALITY CONTROLLED BY THE NATIONAL
WEATHER SERVICE. USE DATA WITH CAUTION...ESPECIALLY
DEWPOINT OBSERVATIONS.

SCZ027-030-031-034>040-042>050-121400-
...SOUTH CAROLINA...

CITY           SKY/WX    TMP DP  RH WIND       PRES   REMARKS
N CHARLESTON   PTSUNNY   80  72  76 CALM      30.20R
WATERFRONT PRK   N/A     79 N/A N/A CALM        N/A
FORT JOHNSON   NOT AVBL
MOUNT PLEASANT FAIR      79  73  83 CALM      30.20R
JOHNS ISLAND   PTSUNNY   77  68  73 CALM      30.20S
PINOPOLIS        N/A     79  75  89 E3        30.13R
MONCKS CORNER    N/A     81  77  89 NE5       30.20R
SUMMERVILLE    FAIR      79  77  94 N5        30.21R
BEAUFORT MCAS  CLOUDY    77  73  87 VRB5      30.20R
BEAUFORT ARPT  FAIR      77  75  94 SW3       30.20R
HILTON HEAD IS RAIN      73  73 100 CALM      30.21R
GEORGETOWN     NOT AVBL
WALTERBORO     PTSUNNY   77 N/A N/A CALM      30.21S
ORANGEBURG     MOSUNNY   79  72  79 E6        30.20S
BARNWELL       FAIR      81  75  83 E5        30.21R
AIKEN          FAIR      77  77 100 CALM      30.25R
MANNING        FAIR      77 N/A N/A CALM      30.21S
KINGSTREE      NOT AVBL
COLUMBIA       CLOUDY    78  72  81 E3        30.20R
SUMTER         NOT AVBL
FLORENCE       MOSUNNY   80  72  76 E7        30.21S
MYRTLE BEACH   NOT AVBL
N MYRTLE BEACH CLOUDY    75  71  87 CALM      30.22R

$$

GAZ063-065-086>088-099>101-113>116-118-119-134-136>141-150-121400-
...GEORGIA...

CITY           SKY/WX    TMP DP  RH WIND       PRES   REMARKS
SAVANNAH ARPT  LGT RAIN  74  71  91 NE5       30.20R
HUNTER AAF     NOT AVBL
FORT STEWART   NOT AVBL
STATESBORO     NOT AVBL
SYLVANIA       CLOUDY    74  74 100 CALM      30.22R FOG
CLAXTON        DRIZZLE  N/A N/A N/A CALM      30.20R
THOMSON        SUNNY     81  76  86 E3        30.25R
AUGUSTA-BUSH   SUNNY     78  72  81 VRB3      30.19R
AUGUSTA-DANIEL SUNNY     80  72  76 VRB3      30.21R
SWAINSBORO     FAIR      82  79  89 E3        30.20R HX  93
VIDALIA          N/A     79  73  83 E9        30.20R
ALMA           CLOUDY    75  72  90 CALM      30.18R FOG
WAYCROSS       PTSUNNY   80  76  87 E3        30.19R
JESUP          NOT AVBL
BRUNSWICK      CLOUDY    77  73  88 CALM      30.19R
SAINT SIMONS   CLOUDY    76  73  91 NW5       30.18R

$$

SCZ027-028-034-036>038-045-046-048>050-GAZ119-141-121400-
...LAKE AND SUPPLEMENTAL COASTAL OBSERVATIONS...

STATION/POSITION TIME  TEMP    WIND        PRES    WAVE   SWELL
                       AIR SEA DIR/SP/G            HT/PER HT/PER/DIR
                 (UTC) (F)     (DEG/KT/KT) (MB)    (FT/S) (FT/S/D)
UPR LAKE MARION  NOT AVBL
WINYAH BAY       1300   77      30/  5     1022.0S
LAKE MURRAY      1200   75      80/  3/  5 1022.0S
ACE BASIN NERRS  1300   75        CALM     1022.0S
FORT PULASKI     1300   74 78  350/  6/  7   N/A
SAPELO ISLAND    1300   76     350/  4     1022.0S

$$

ANZ835-935-AMZ111-154-330-350-352-354-374-450-454-472-121400-
...C-MAN AND BUOY OBSERVATIONS...

STATION/POSITION TIME  TEMP    WIND        PRES    WAVE   SWELL
                       AIR SEA DIR/SP/G            HT/PER HT/PER/DIR
                 (UTC) (F)     (DEG/KT/KT) (MB)    (FT/S) (FT/S/D)
FOLLY BEACH CMAN 1300   75     310/  3/  4 1022.9R
BUOY 41004       1300   78 82   40/  6/  6 1021.6R   2/ 9   2/ 9
BUOY 41008       1300   79 84  230/  4/  6 1021.5R   2/10   2/110/10
5E ST. MARYS GA  1300      83                N/A     2/ 9
FRYING PAN BUOY  NOT AVBL
BUOY 41025       1300          VRB 12/ 14  1022.6R   2/ 8   2/110/ 8
CAPE LOOKOUT NC  1300   78      10/  7/  8 1022.7R
BUOY 41002       1250   80 83   30/  4/  6 1023.2R   3/ 7   3/150/ 7
BUOY 41010       1300   79 83   70/  6/  8 1021.1S   2/ 9   2/ 90/ 9
BUOY 41012       NOT AVBL
ST AUGUSTINE FL  1300   80     140/  5/  6 1021.8R
CAPERS NEARSHORE 1200   78     100/  4/  6   N/A
FRIPP NEARSHORE  1200   72      CALM  /  2   N/A


$$



USA.gov is the U.S. government's official web portal to all federal, state and local government web resources and services.